カタログに戻る

DMSP 5D-2 F13 DEB

運用中SSO
NORAD 40565·DEBRIS·🇺🇸 United States

打ち上げ Mar 24, 1995 から Vandenberg Space Force Base

Loading…

次のパス (今後24時間)

TLE

最新Source: Space-Track

元期: Sep 11, 2026, 13:24 UTC

1 40565U 95015DY  26254.55836803  .00001152  00000-0  90003-3 0  9991
2 40565  98.8012   1.1794 0165447  24.3238 336.5618 13.87891197576072

AllMySatでDMSP 5D-2 F13 DEBをリアルタイム追跡

Download on the App Store